Location: Elstree
(51.6403°N, 0.2969°W)
Time: 13:55:38
(UTC+00:00)

CZ-4 R/B - Pass Details

Date: 03 March 2021
Orbit: 532 x 597 km, 97.7° (Epoch: 11 April)

Event Time Altitude Azimuth Distance (km) Brightness Sun altitude
Rises 19:39:53 0° 207° (SSW) 2,673 5.0 -18.5°
Reaches altitude 10° 19:42:35 10° 228° (SW) 1,794 4.4 -18.9°
Maximum altitude 19:45:09 17° 270° (W) 1,420 4.4 -19.3°
Drops below altitude 10° 19:47:45 10° 312° (NW) 1,821 4.9 -19.7°
Sets 19:50:32 0° 333° (NNW) 2,733 5.5 -20.1°
